Location: Mount Cross
(36.6390°N, 79.4878°W)
Time: 17:40:20
(UTC+00:00)

Courier 1B Rocket - Pass Details

Date: 30 March 2023
Orbit: 920 x 1202 km, 28.2° (Epoch: 08 June)

Event Time Altitude Azimuth Distance (km) Brightness Sun altitude
Rises 23:42:03 0° 244° (WSW) 4,018 9.3 -1.6°
Reaches altitude 10° 23:45:08 10° 236° (WSW) 3,023 8.4 -2.2°
Maximum altitude 23:51:55 39° 171° (S) 1,583 6.0 -3.5°
Drops below altitude 10° 23:58:16 10° 105° (ESE) 2,836 6.8 -4.8°
Enters shadow 23:59:25 - 102° (ESE) 3,203 7.0 -5.0°
Sets 00:01:04 0° 98° (E) 3,745 - -5.3°
